Regional Weather Roundup
Issued by NWS

Home | Current Version | Previous Version | Graphics & Text | Print | Product List | Glossary On
Versions: 1 2 3 4 5 6 7 8 9 10 11 12 13 14 15 16 17 18 19 20 21 22 23 24 25 26 27
000
ASUS45 KBOU 230407
RWRCO

WEATHER ROUNDUP FOR COLORADO
NATIONAL WEATHER SERVICE DENVER/BOULDER CO
1000 PM MDT THU JUN 22 2017

NOTE: "FAIR" INDICATES FEW OR NO CLOUDS BELOW 12000 FEET WITH NO
SIGNIFICANT WEATHER AND/OR OBSTRUCTIONS TO VISIBILITY.

COZ001>005-013-030-031-230500-
...NORTHWEST COLORADO...

CITY           SKY/WX    TMP DP  RH WIND       PRES   REMARKS
CRAIG          FAIR      71  24  17 W8        30.07R
HAYDEN         FAIR      66  25  20 W8        30.09R
MEEKER         FAIR      59  51  75 MISG      30.10R
RABBIT EARS PA MOCLDY    52  34  50 W9        30.38R
STEAMBOAT SPGS FAIR      67  42  39 E5        30.10R
WALDEN         MOCLDY    63  21  20 W9        30.18R
$$

COZ006>008-011-230500-
...WEST CENTRAL VALLEYS...

CITY           SKY/WX    TMP DP  RH WIND       PRES   REMARKS
GRAND JUNCTION FAIR      84  33  16 N10       29.90R
MONTROSE       FAIR      74  39  28 E7        30.00R
EAGLE          FAIR      68  41  37 E6        30.12R
RIFLE          FAIR      72  40  31 E3        29.99R
DELTA          FAIR      80  31  16 E9        29.93R
NUCLA          FAIR      81  27  13 CALM      30.04R
$$

COZ017>023-064>068-230500-
...SOUTHWEST COLORADO...

CITY           SKY/WX    TMP DP  RH WIND       PRES   REMARKS
DURANGO        FAIR      72  20  14 CALM      30.04R
CORTEZ         FAIR      72  32  23 NE8       29.99R
PAGOSA SPRINGS FAIR      72  14  11 NW6       30.14R
TELLURIDE      MOCLDY    69  27  20 SW3       30.31R
WOLF CREEK PAS FAIR      55  19  24 NW7       30.57R
$$

COZ009-010-012-014-032>034-037-058>063-230500-
...CENTRAL COLORADO...

CITY           SKY/WX    TMP DP  RH WIND       PRES   REMARKS
ASPEN          FAIR      58  38  47 SW12      30.17R
BUENA VISTA    FAIR      68  29  23 NW3       30.19R
COPPER MTN     LGT RAIN  50  34  53 NW16      30.53R
BERTHOUD PASS  FAIR      43  30  61 W28       30.50R
COTTONWOOD PAS FAIR      68  23  18 CALM      30.35R
GUNNISON       FAIR      67  37  33 NW7       30.17R
KREMMLING      NOT AVBL
LEADVILLE      FAIR      54  31  41 N10       30.35R
MONARCH PASS   FAIR      54  36  50 NE15      30.62R
SALIDA         FAIR      73  41  31 E15G24    30.22R
SUNLIGHT       FAIR      54  28  37 CALM      30.44R
WILKERSON PASS FAIR      52  32  46 N10G22    30.49R
$$

COZ069>075-230500-
...SAN LUIS VALLEY/SANGRE DE CRISTO MOUNTAINS...

CITY           SKY/WX    TMP DP  RH WIND       PRES   REMARKS
ALAMOSA        FAIR      68  44  42 E18G28    30.12R
DEL NORTE      FAIR      75  28  17 N16G22    30.17R
LA VETA PASS   MOCLDY    54  41  62 NE17      30.50R
SAGUACHE       FAIR      70  32  24 NW8       30.17R
$$

COZ035-036-038>040-230500-
...NORTHERN COLORADO FRONT RANGE...

CITY           SKY/WX    TMP DP  RH WIND       PRES   REMARKS
DENVER INTL AP MOCLDY    67  52  58 SE10      30.01R
DMNS CITY PARK   N/A     69  51  52 SE2G9     30.00F
AURORA         MOCLDY    69  52  53 N8        30.04R
FRONT RANGE AP FAIR      70  54  56 E8G20     30.04S
ERIE MUNI ARPT FAIR      70  50  49 E8        30.00R
BOULDER MUN AP FAIR      70  50  49 N3        30.03R
CENTENNIAL     MOCLDY    71  47  42 S8        30.03S
BROOMFIELD     FAIR      68  48  49 E5        30.04R
FORT COLLINS   FAIR      69  52  54 SE7       30.00R
LONGMONT       FAIR      67  56  67 CALM      30.03R
$$

COZ041-046-047-076>085-087-088-230500-
...PIKES PEAK/PALMER DIVIDE AND SOUTHERN FOOTHILLS...

CITY           SKY/WX    TMP DP  RH WIND       PRES   REMARKS
COLO. SPRINGS  MOCLDY    70  51  51 SE9       30.11R
A. F. ACADEMY  FAIR      65  48  54 E5        30.12R
SCHRIEVER AFB  NOT AVBL
CHEYENNE MTN   NOT AVBL
ELLICOTT         N/A    N/A N/A N/A S7        30.11R
FALCON           N/A     63  47  55 S14       30.16R
FORT CARSON    MOCLDY    72  52  49 SE12      30.06S
LIMON          FAIR      69  55  60 E7        30.04R
MONUMENT HILL  FAIR      61  45  55 CALM      30.17R
CANON CITY     CLEAR     68  59  73 NE5       30.03F
WALSENBURG     FAIR      66  48  52 W6        30.10R
TRINIDAD       FAIR      71  46  40 E5        30.11R
$$

COZ042>045-048>051-090-091-230500-
...NORTHEAST COLORADO...

CITY           SKY/WX    TMP DP  RH WIND       PRES   REMARKS
GREELEY ARPT   FAIR      69  54  58 E12       29.99R
AKRON          FAIR      67  53  61 E10       30.01R
BURLINGTON     FAIR      71  57  61 NE15      29.95R
WRAY           FAIR      70  54  56 NE14      29.95R
YUMA           FAIR      66  50  55 NE9       29.99R
STERLING       FAIR      70  55  60 E8        29.97R
HOLYOKE        NOT AVBL
FORT MORGAN    FAIR      67  53  60 E9        30.00R
$$

COZ086-089-092>099-230500-
...SOUTHEAST COLORADO...

CITY           SKY/WX    TMP DP  RH WIND       PRES   REMARKS
PUEBLO         LGT RAIN  73  56  54 NE8       30.02R
LA JUNTA       FAIR      75  49  39 S8        29.95R
LAMAR          FAIR      72  49  44 S3        29.87S
SPRINGFIELD      N/A     66  56  70 CALM      29.94R
$$




USA.gov is the U.S. government's official web portal to all federal, state and local government web resources and services.